sat.trackr.live / text

‹ back to catalog

GSAT0211 (GALILEO 14)

NORAD 41549 · 2016-030A

PAYLOAD ACTIVE UNKNOWN

§ Identity

Operator
Country
ESA
Launch date
2016-05-24
Launch site
FRGUI
Launch vehicle
Mass (kg)
RCS (m²)
6.60

Purposes: earth_obs, nav

External: N2YO · Heavens-Above · Gunter

§ Orbital elements

Epoch: 2026-09-03T09:33:57.686976Z

Period
844.71 min
Inclination
55.0784°
Eccentricity
0.0003740
Mean motion
1.70473101 rev/d
Perigee alt
23,211.2 km
Apogee alt
23,233.4 km
Semi-major
29,600.4 km
B*
0.0000e+0
RAAN
219.5442°
Arg perigee
329.0965°
Mean anomaly
30.8592°
Rev number
6,400

§ Raw data

GSAT0211 (GALILEO 14)1 41549U 16030A   26246.39858434  .00000054  00000+0  00000+0 0  99942 41549  55.0784 219.5442 0003740 329.0965  30.8592  1.70473101 64000

JSON: /api/v1/satellites/41549 · /tle

For live sub-satellite position, see the globe view (requires WebGL).

§ Visibility from observer

Set your observer location to see the next 7 days of passes ≥ 10°. The values pass through the URL so the page stays shareable.

No JS? Fill the form by hand. The geolocation button needs JavaScript.